Location: Treviso
(45.6669°N, 12.2430°E)
Time: 17:47:14
(UTC+02:00)

ISS - Pass Details

Date: 16 September 2018
Orbit: 403 x 408 km, 51.6° (Epoch: 23 September)

Event Time Altitude Azimuth Distance (km) Brightness Sun altitude
Exits shadow 04:10:54 20° 85° (E) 1,019 -1.2 -26.7°
Drops below altitude 10° 04:12:04 10° 94° (E) 1,460 -0.4 -26.5°
Sets 04:14:12 0° 101° (E) 2,317 0.6 -26.2°
